Powrót do katalogu

CZ-6A DEB

AktywnySSO
NORAD 55872·DEBRIS·🇨🇳 China

Wystrzelony Nov 11, 2022 z Taiyuan Satellite Launch Center

Loading…

Następne Przeloty (najbliższe 24 godziny)

TLE

ŚwieżeSource: Space-Track

Epoka: Sep 14, 2026, 10:57 UTC

1 55872U 22151ZU  26257.45677350  .00000159  00000-0  11119-3 0  9998
2 55872  98.8394 257.9860 0041187  60.6748 299.8528 14.11408870185639

Śledź CZ-6A DEB w czasie rzeczywistym z AllMySat

Download on the App Store